Time,TemperatureF,DewpointF,PressureIn,WindDirection,WindDirectionDegrees,WindSpeedMPH,WindSpeedGustMPH,Humidity,HourlyPrecipIn,Conditions,Clouds,dailyrainin,SoftwareType,DateUTC
2013-05-16 00:00:00,57.8,48.5,29.60,WNW,283,0.0,0.0,71,0.00,,,0.00,Wunderground v.1.15,2013-05-16 06:00:00,
2013-05-16 00:05:00,57.6,48.3,29.60,WNW,285,0.0,0.0,71,0.00,,,0.00,Wunderground v.1.15,2013-05-16 06:05:00,
2013-05-16 00:15:00,57.2,47.9,29.60,West,270,0.0,1.0,71,0.00,,,0.00,Wunderground v.1.15,2013-05-16 06:15:00,
2013-05-16 00:20:00,57.1,47.8,29.60,West,269,1.0,1.0,71,0.00,,,0.00,Wunderground v.1.15,2013-05-16 06:20:00,
2013-05-16 00:25:00,56.8,47.9,29.60,ENE,65,1.0,1.0,72,0.00,,,0.00,Wunderground v.1.15,2013-05-16 06:25:00,
2013-05-16 00:30:00,56.3,47.8,29.60,ENE,65,0.0,0.0,73,0.00,,,0.00,Wunderground v.1.15,2013-05-16 06:30:00,
2013-05-16 00:35:00,55.8,48.0,29.59,ENE,65,0.0,0.0,75,0.00,,,0.00,Wunderground v.1.15,2013-05-16 06:35:00,
2013-05-16 00:45:00,54.9,47.5,29.58,West,271,0.0,1.0,76,0.00,,,0.00,Wunderground v.1.15,2013-05-16 06:45:00,
2013-05-16 00:50:00,54.8,47.4,29.58,West,278,0.0,1.0,76,0.00,,,0.00,Wunderground v.1.15,2013-05-16 06:50:00,
2013-05-16 01:00:00,56.1,46.4,29.57,North,356,2.0,2.0,70,0.00,,,0.00,Wunderground v.1.15,2013-05-16 07:00:00,
2013-05-16 01:05:00,56.6,46.5,29.57,WNW,291,2.0,2.0,69,0.00,,,0.00,Wunderground v.1.15,2013-05-16 07:05:00,
2013-05-16 01:15:00,56.0,47.5,29.58,WSW,257,2.0,2.0,73,0.00,,,0.00,Wunderground v.1.15,2013-05-16 07:15:00,
2013-05-16 01:20:00,55.4,47.2,29.58,WSW,253,2.0,2.0,74,0.00,,,0.00,Wunderground v.1.15,2013-05-16 07:20:00,
2013-05-16 01:25:00,55.6,47.1,29.59,WSW,253,1.0,2.0,73,0.00,,,0.00,Wunderground v.1.15,2013-05-16 07:25:00,
2013-05-16 01:34:00,56.1,46.4,29.58,NNW,347,1.0,1.0,70,0.00,,,0.00,Wunderground v.1.15,2013-05-16 07:34:00,
2013-05-16 01:40:00,56.3,46.6,29.58,SE,124,1.0,1.0,70,0.00,,,0.00,Wunderground v.1.15,2013-05-16 07:40:00,
2013-05-16 01:45:00,56.2,46.9,29.57,SE,126,0.0,1.0,71,0.00,,,0.00,Wunderground v.1.15,2013-05-16 07:45:00,
2013-05-16 01:55:00,56.5,46.1,29.58,NNW,345,1.0,1.0,68,0.00,,,0.00,Wunderground v.1.15,2013-05-16 07:55:00,
2013-05-16 02:00:00,56.7,46.3,29.58,WSW,248,1.0,2.0,68,0.00,,,0.00,Wunderground v.1.15,2013-05-16 08:00:00,
2013-05-16 02:05:00,56.6,45.8,29.58,North,360,1.0,2.0,67,0.00,,,0.00,Wunderground v.1.15,2013-05-16 08:05:00,
2013-05-16 02:14:00,56.1,45.7,29.57,NW,315,1.0,2.0,68,0.00,,,0.00,Wunderground v.1.15,2013-05-16 08:14:00,
2013-05-16 02:20:00,56.5,45.7,29.58,West,260,1.0,3.0,67,0.00,,,0.00,Wunderground v.1.15,2013-05-16 08:20:00,
2013-05-16 02:30:00,56.9,45.3,29.57,NW,308,1.0,1.0,65,0.00,,,0.00,Wunderground v.1.15,2013-05-16 08:30:00,
2013-05-16 02:35:00,56.8,46.3,29.57,NW,307,0.0,1.0,68,0.00,,,0.00,Wunderground v.1.15,2013-05-16 08:35:00,
2013-05-16 02:40:00,55.9,46.3,29.58,West,281,0.0,2.0,70,0.00,,,0.00,Wunderground v.1.15,2013-05-16 08:40:00,
2013-05-16 02:45:00,55.9,45.5,29.58,NW,326,2.0,4.0,68,0.00,,,0.00,Wunderground v.1.15,2013-05-16 08:45:00,
2013-05-16 02:50:00,56.5,45.3,29.57,WSW,257,3.0,3.0,66,0.00,,,0.00,Wunderground v.1.15,2013-05-16 08:50:00,
2013-05-16 03:00:00,56.6,45.0,29.57,WSW,256,2.0,2.0,65,0.00,,,0.00,Wunderground v.1.15,2013-05-16 09:00:00,
2013-05-16 03:10:00,55.9,45.1,29.57,West,278,2.0,3.0,67,0.00,,,0.00,Wunderground v.1.15,2013-05-16 09:10:00,
2013-05-16 03:15:00,56.4,44.8,29.57,NNE,25,2.0,3.0,65,0.00,,,0.00,Wunderground v.1.15,2013-05-16 09:15:00,
2013-05-16 03:20:00,56.7,44.2,29.57,North,356,1.0,2.0,63,0.00,,,0.00,Wunderground v.1.15,2013-05-16 09:20:00,
2013-05-16 03:25:00,57.0,44.5,29.57,WSW,250,2.0,4.0,63,0.00,,,0.00,Wunderground v.1.15,2013-05-16 09:25:00,
2013-05-16 03:35:00,56.7,44.7,29.58,West,273,1.0,2.0,64,0.00,,,0.00,Wunderground v.1.15,2013-05-16 09:35:00,
2013-05-16 03:44:00,56.6,44.6,29.57,NNW,330,1.0,3.0,64,0.00,,,0.00,Wunderground v.1.15,2013-05-16 09:44:00,
2013-05-16 03:50:00,56.8,44.3,29.56,WNW,287,2.0,2.0,63,0.00,,,0.00,Wunderground v.1.15,2013-05-16 09:50:00,
2013-05-16 03:55:00,56.5,44.9,29.56,West,277,2.0,4.0,65,0.00,,,0.00,Wunderground v.1.15,2013-05-16 09:55:00,
2013-05-16 04:00:00,55.0,44.6,29.56,NW,315,2.0,2.0,68,0.00,,,0.00,Wunderground v.1.15,2013-05-16 10:00:00,
2013-05-16 04:05:00,55.7,44.5,29.55,West,266,2.0,2.0,66,0.00,,,0.00,Wunderground v.1.15,2013-05-16 10:05:00,
2013-05-16 04:15:00,55.8,44.2,29.55,North,352,2.0,3.0,65,0.00,,,0.00,Wunderground v.1.15,2013-05-16 10:15:00,
2013-05-16 04:20:00,55.7,44.5,29.55,SW,235,1.0,1.0,66,0.00,,,0.00,Wunderground v.1.15,2013-05-16 10:20:00,
2013-05-16 04:30:00,54.1,44.5,29.56,NW,326,1.0,1.0,70,0.00,,,0.00,Wunderground v.1.15,2013-05-16 10:30:00,
2013-05-16 04:35:00,54.9,44.1,29.56,WNW,301,1.0,3.0,67,0.00,,,0.00,Wunderground v.1.15,2013-05-16 10:35:00,
2013-05-16 04:40:00,56.1,44.1,29.56,West,270,2.0,2.0,64,0.00,,,0.00,Wunderground v.1.15,2013-05-16 10:40:00,
2013-05-16 04:45:00,56.1,44.1,29.56,WSW,257,3.0,4.0,64,0.00,,,0.00,Wunderground v.1.15,2013-05-16 10:45:00,
2013-05-16 04:50:00,56.5,44.0,29.56,West,278,3.0,3.0,63,0.00,,,0.00,Wunderground v.1.15,2013-05-16 10:50:00,
2013-05-16 04:55:00,56.7,44.2,29.56,WSW,257,2.0,3.0,63,0.00,,,0.00,Wunderground v.1.15,2013-05-16 10:55:00,
2013-05-16 05:05:00,56.3,44.3,29.56,NNE,25,2.0,3.0,64,0.00,,,0.00,Wunderground v.1.15,2013-05-16 11:05:00,
2013-05-16 05:15:00,55.5,44.7,29.56,North,360,1.0,2.0,67,0.00,,,0.00,Wunderground v.1.15,2013-05-16 11:15:00,
2013-05-16 05:20:00,55.0,45.0,29.56,North,355,0.0,2.0,69,0.00,,,0.00,Wunderground v.1.15,2013-05-16 11:20:00,
2013-05-16 05:25:00,54.4,44.8,29.56,West,260,1.0,2.0,70,0.00,,,0.00,Wunderground v.1.15,2013-05-16 11:25:00,
2013-05-16 05:30:00,54.6,44.6,29.55,ENE,63,1.0,1.0,69,0.00,,,0.00,Wunderground v.1.15,2013-05-16 11:30:00,
2013-05-16 05:35:00,54.4,44.8,29.55,ENE,62,1.0,1.0,70,0.00,,,0.00,Wunderground v.1.15,2013-05-16 11:35:00,
2013-05-16 05:40:00,54.5,44.9,29.56,ESE,110,1.0,1.0,70,0.00,,,0.00,Wunderground v.1.15,2013-05-16 11:40:00,
2013-05-16 05:50:00,55.5,43.1,29.56,SW,221,1.0,1.0,63,0.00,,,0.00,Wunderground v.1.15,2013-05-16 11:50:00,
2013-05-16 05:59:00,56.9,43.2,29.57,NNE,33,2.0,2.0,60,0.00,,,0.00,Wunderground v.1.15,2013-05-16 11:59:00,
2013-05-16 06:05:00,55.9,44.3,29.57,NE,50,2.0,2.0,65,0.00,,,0.00,Wunderground v.1.15,2013-05-16 12:05:00,
2013-05-16 06:15:00,55.3,44.1,29.58,SE,126,1.0,1.0,66,0.00,,,0.00,Wunderground v.1.15,2013-05-16 12:15:00,
2013-05-16 06:20:00,55.3,44.9,29.58,NNE,19,1.0,1.0,68,0.00,,,0.00,Wunderground v.1.15,2013-05-16 12:20:00,
2013-05-16 06:25:00,55.0,44.6,29.58,NNW,334,1.0,1.0,68,0.00,,,0.00,Wunderground v.1.15,2013-05-16 12:25:00,
2013-05-16 06:30:00,55.1,45.1,29.58,SE,143,1.0,1.0,69,0.00,,,0.00,Wunderground v.1.15,2013-05-16 12:30:00,
2013-05-16 06:39:00,55.9,45.1,29.58,West,259,2.0,4.0,67,0.00,,,0.00,Wunderground v.1.15,2013-05-16 12:39:00,
2013-05-16 06:45:00,55.8,45.4,29.59,SE,144,3.0,4.0,68,0.00,,,0.00,Wunderground v.1.15,2013-05-16 12:45:00,
2013-05-16 06:50:00,56.3,45.5,29.58,SE,132,1.0,1.0,67,0.00,,,0.00,Wunderground v.1.15,2013-05-16 12:50:00,
2013-05-16 06:55:00,57.2,45.9,29.58,WSW,239,0.0,1.0,66,0.00,,,0.00,Wunderground v.1.15,2013-05-16 12:55:00,
2013-05-16 07:00:00,57.9,45.8,29.58,SW,227,1.0,1.0,64,0.00,,,0.00,Wunderground v.1.15,2013-05-16 13:00:00,
2013-05-16 07:05:00,58.8,45.4,29.58,SW,226,1.0,1.0,61,0.00,,,0.00,Wunderground v.1.15,2013-05-16 13:05:00,
2013-05-16 07:14:00,60.4,46.0,29.59,NE,46,1.0,3.0,59,0.00,,,0.00,Wunderground v.1.15,2013-05-16 13:14:00,
2013-05-16 07:20:00,60.2,45.8,29.59,East,79,1.0,1.0,59,0.00,,,0.00,Wunderground v.1.15,2013-05-16 13:20:00,
2013-05-16 07:25:00,60.9,46.5,29.58,ENE,77,1.0,1.0,59,0.00,,,0.00,Wunderground v.1.15,2013-05-16 13:25:00,
2013-05-16 07:30:00,62.2,46.8,29.59,ENE,77,0.0,1.0,57,0.00,,,0.00,Wunderground v.1.15,2013-05-16 13:30:00,
2013-05-16 07:40:00,64.1,45.1,29.59,East,99,0.0,1.0,50,0.00,,,0.00,Wunderground v.1.15,2013-05-16 13:40:00,
2013-05-16 07:45:00,64.3,46.3,29.58,East,93,0.0,1.0,52,0.00,,,0.00,Wunderground v.1.15,2013-05-16 13:45:00,
2013-05-16 07:50:00,64.9,45.8,29.58,SSE,148,1.0,1.0,50,0.00,,,0.00,Wunderground v.1.15,2013-05-16 13:50:00,
2013-05-16 07:59:00,64.6,45.5,29.58,ENE,70,2.0,2.0,50,0.00,,,0.00,Wunderground v.1.15,2013-05-16 13:59:00,
2013-05-16 08:05:00,64.3,45.3,29.58,ENE,68,1.0,2.0,50,0.00,,,0.00,Wunderground v.1.15,2013-05-16 14:05:00,
2013-05-16 08:15:00,64.4,44.8,29.58,SE,132,1.0,1.0,49,0.00,,,0.00,Wunderground v.1.15,2013-05-16 14:15:00,
2013-05-16 08:20:00,64.8,45.2,29.58,SE,130,0.0,0.0,49,0.00,,,0.00,Wunderground v.1.15,2013-05-16 14:20:00,
2013-05-16 08:25:00,65.6,45.9,29.58,SE,127,1.0,2.0,49,0.00,,,0.00,Wunderground v.1.15,2013-05-16 14:25:00,
2013-05-16 08:30:00,66.2,45.9,29.58,SSE,149,1.0,1.0,48,0.00,,,0.00,Wunderground v.1.15,2013-05-16 14:30:00,
2013-05-16 08:39:00,67.5,46.6,29.58,ENE,74,1.0,2.0,47,0.00,,,0.00,Wunderground v.1.15,2013-05-16 14:39:00,
2013-05-16 08:49:00,66.6,46.3,29.58,SE,139,1.0,1.0,48,0.00,,,0.00,Wunderground v.1.15,2013-05-16 14:49:00,
2013-05-16 08:55:00,66.8,47.6,29.58,ENE,71,1.0,2.0,50,0.00,,,0.00,Wunderground v.1.15,2013-05-16 14:55:00,
2013-05-16 09:00:00,67.0,47.7,29.58,SSE,155,2.0,2.0,50,0.00,,,0.00,Wunderground v.1.15,2013-05-16 15:00:00,
2013-05-16 09:05:00,67.1,46.7,29.57,East,85,2.0,2.0,48,0.00,,,0.00,Wunderground v.1.15,2013-05-16 15:05:00,
2013-05-16 09:14:00,65.9,47.8,29.58,ESE,113,2.0,2.0,52,0.00,,,0.00,Wunderground v.1.15,2013-05-16 15:14:00,
2013-05-16 09:20:00,65.6,49.0,29.57,ENE,70,2.0,2.0,55,0.00,,,0.00,Wunderground v.1.15,2013-05-16 15:20:00,
2013-05-16 09:30:00,65.1,49.0,29.57,SSE,167,2.0,2.0,56,0.00,,,0.00,Wunderground v.1.15,2013-05-16 15:30:00,
2013-05-16 09:35:00,65.0,48.9,29.57,NNE,27,2.0,2.0,56,0.00,,,0.00,Wunderground v.1.15,2013-05-16 15:35:00,
2013-05-16 09:40:00,64.8,48.7,29.57,ENE,72,3.0,3.0,56,0.00,,,0.00,Wunderground v.1.15,2013-05-16 15:40:00,
2013-05-16 09:45:00,65.4,49.3,29.57,SSE,153,2.0,3.0,56,0.00,,,0.00,Wunderground v.1.15,2013-05-16 15:45:00,
2013-05-16 09:55:00,66.4,49.7,29.57,East,96,3.0,3.0,55,0.00,,,0.00,Wunderground v.1.15,2013-05-16 15:55:00,
2013-05-16 10:00:00,67.1,50.4,29.57,ENE,58,3.0,3.0,55,0.00,,,0.00,Wunderground v.1.15,2013-05-16 16:00:00,
2013-05-16 10:10:00,67.7,49.9,29.56,NE,53,3.0,3.0,53,0.00,,,0.00,Wunderground v.1.15,2013-05-16 16:10:00,
2013-05-16 10:15:00,67.8,49.5,29.56,ENE,71,3.0,3.0,52,0.00,,,0.00,Wunderground v.1.15,2013-05-16 16:15:00,
2013-05-16 10:20:00,68.1,50.3,29.56,NE,36,3.0,3.0,53,0.00,,,0.00,Wunderground v.1.15,2013-05-16 16:20:00,
2013-05-16 10:30:00,69.4,51.0,29.56,SE,138,2.0,2.0,52,0.00,,,0.00,Wunderground v.1.15,2013-05-16 16:30:00,
2013-05-16 10:35:00,70.3,50.8,29.56,East,81,2.0,2.0,50,0.00,,,0.00,Wunderground v.1.15,2013-05-16 16:35:00,
2013-05-16 10:40:00,70.9,49.1,29.56,SSE,149,2.0,2.0,46,0.00,,,0.00,Wunderground v.1.15,2013-05-16 16:40:00,
2013-05-16 10:49:00,70.9,46.0,29.56,East,98,3.0,4.0,41,0.00,,,0.00,Wunderground v.1.15,2013-05-16 16:49:00,
2013-05-16 10:55:00,70.9,45.4,29.56,NE,43,3.0,4.0,40,0.00,,,0.00,Wunderground v.1.15,2013-05-16 16:55:00,
2013-05-16 11:00:00,71.3,44.4,29.56,SSE,156,3.0,3.0,38,0.00,,,0.00,Wunderground v.1.15,2013-05-16 17:00:00,
2013-05-16 11:05:00,71.8,44.8,29.56,ESE,114,3.0,4.0,38,0.00,,,0.00,Wunderground v.1.15,2013-05-16 17:05:00,
2013-05-16 11:15:00,70.0,45.8,29.56,East,95,3.0,4.0,42,0.00,,,0.00,Wunderground v.1.15,2013-05-16 17:15:00,
2013-05-16 11:20:00,69.8,45.7,29.55,ESE,102,3.0,3.0,42,0.00,,,0.00,Wunderground v.1.15,2013-05-16 17:20:00,
2013-05-16 11:29:00,71.1,48.1,29.55,SE,133,3.0,3.0,44,0.00,,,0.00,Wunderground v.1.15,2013-05-16 17:29:00,
2013-05-16 11:34:00,71.5,46.6,29.55,East,85,3.0,3.0,41,0.00,,,0.00,Wunderground v.1.15,2013-05-16 17:34:00,
2013-05-16 11:39:00,72.3,49.2,29.55,SSW,211,3.0,4.0,44,0.00,,,0.00,Wunderground v.1.15,2013-05-16 17:39:00,
2013-05-16 11:45:00,72.5,49.3,29.55,East,89,3.0,6.0,44,0.00,,,0.00,Wunderground v.1.15,2013-05-16 17:45:00,
2013-05-16 11:50:00,72.5,47.5,29.55,SE,134,3.0,3.0,41,0.00,,,0.00,Wunderground v.1.15,2013-05-16 17:50:00,
2013-05-16 11:55:00,72.2,47.2,29.54,SSE,167,3.0,5.0,41,0.00,,,0.00,Wunderground v.1.15,2013-05-16 17:55:00,
2013-05-16 12:00:00,72.4,48.6,29.54,ESE,103,3.0,3.0,43,0.00,,,0.00,Wunderground v.1.15,2013-05-16 18:00:00,
2013-05-16 12:05:00,73.5,45.6,29.54,ESE,106,3.0,3.0,37,0.00,,,0.00,Wunderground v.1.15,2013-05-16 18:05:00,
2013-05-16 12:14:00,73.8,45.2,29.54,NE,49,3.0,6.0,36,0.00,,,0.00,Wunderground v.1.15,2013-05-16 18:14:00,
2013-05-16 12:20:00,72.8,45.0,29.53,ENE,74,4.0,4.0,37,0.00,,,0.00,Wunderground v.1.15,2013-05-16 18:20:00,
2013-05-16 12:25:00,72.6,44.1,29.53,NE,44,4.0,4.0,36,0.00,,,0.00,Wunderground v.1.15,2013-05-16 18:25:00,
2013-05-16 12:30:00,72.3,43.8,29.53,ENE,58,4.0,4.0,36,0.00,,,0.00,Wunderground v.1.15,2013-05-16 18:30:00,
2013-05-16 12:35:00,72.0,45.7,29.53,ENE,63,4.0,4.0,39,0.00,,,0.00,Wunderground v.1.15,2013-05-16 18:35:00,
2013-05-16 12:40:00,71.9,46.3,29.52,ENE,70,4.0,4.0,40,0.00,,,0.00,Wunderground v.1.15,2013-05-16 18:40:00,
2013-05-16 12:50:00,72.9,45.8,29.52,ENE,63,4.0,4.0,38,0.00,,,0.00,Wunderground v.1.15,2013-05-16 18:50:00,
2013-05-16 12:55:00,72.7,44.2,29.52,ENE,70,3.0,4.0,36,0.00,,,0.00,Wunderground v.1.15,2013-05-16 18:55:00,
2013-05-16 13:05:00,72.6,46.2,29.52,NNE,33,2.0,3.0,39,0.00,,,0.00,Wunderground v.1.15,2013-05-16 19:05:00,
2013-05-16 13:15:00,73.2,46.1,29.51,NE,48,2.0,2.0,38,0.00,,,0.00,Wunderground v.1.15,2013-05-16 19:15:00,
2013-05-16 13:20:00,73.1,45.3,29.51,East,86,3.0,3.0,37,0.00,,,0.00,Wunderground v.1.15,2013-05-16 19:20:00,
2013-05-16 13:25:00,73.1,45.3,29.51,NE,38,3.0,4.0,37,0.00,,,0.00,Wunderground v.1.15,2013-05-16 19:25:00,
2013-05-16 13:30:00,73.4,46.2,29.51,ENE,75,3.0,3.0,38,0.00,,,0.00,Wunderground v.1.15,2013-05-16 19:30:00,
2013-05-16 13:35:00,74.6,43.6,29.51,SSE,159,3.0,3.0,33,0.00,,,0.00,Wunderground v.1.15,2013-05-16 19:35:00,
2013-05-16 13:44:00,77.2,41.6,29.51,SE,127,2.0,2.0,28,0.00,,,0.00,Wunderground v.1.15,2013-05-16 19:44:00,
2013-05-16 13:50:00,77.4,40.8,29.51,SSE,166,2.0,2.0,27,0.00,,,0.00,Wunderground v.1.15,2013-05-16 19:50:00,
2013-05-16 14:00:00,77.2,40.6,29.50,SSW,208,2.0,3.0,27,0.00,,,0.00,Wunderground v.1.15,2013-05-16 20:00:00,
2013-05-16 14:05:00,77.4,38.8,29.50,WNW,291,3.0,3.0,25,0.00,,,0.00,Wunderground v.1.15,2013-05-16 20:05:00,
2013-05-16 14:15:00,79.7,40.8,29.49,SSE,147,2.0,3.0,25,0.00,,,0.00,Wunderground v.1.15,2013-05-16 20:15:00,
2013-05-16 14:24:00,79.8,38.7,29.49,SE,141,2.0,2.0,23,0.00,,,0.00,Wunderground v.1.15,2013-05-16 20:24:00,
2013-05-16 14:29:00,80.7,41.6,29.49,SW,215,2.0,3.0,25,0.00,,,0.00,Wunderground v.1.15,2013-05-16 20:29:00,
2013-05-16 14:34:00,80.7,34.6,29.49,West,278,2.0,4.0,19,0.00,,,0.00,Wunderground v.1.15,2013-05-16 20:34:00,
2013-05-16 14:45:00,81.2,37.5,29.50,WSW,255,5.0,10.0,21,0.00,,,0.00,Wunderground v.1.15,2013-05-16 20:45:00,
2013-05-16 14:50:00,78.5,37.6,29.51,SSW,204,9.0,9.0,23,0.00,,,0.00,Wunderground v.1.15,2013-05-16 20:50:00,
2013-05-16 14:55:00,75.3,39.0,29.51,WSW,245,12.0,12.0,27,0.00,,,0.00,Wunderground v.1.15,2013-05-16 20:55:00,
2013-05-16 15:00:00,73.5,38.4,29.51,West,260,12.0,12.0,28,0.00,,,0.00,Wunderground v.1.15,2013-05-16 21:00:00,
2013-05-16 15:05:00,71.9,37.9,29.50,WSW,253,11.0,12.0,29,0.00,,,0.00,Wunderground v.1.15,2013-05-16 21:05:00,
2013-05-16 15:14:00,70.8,38.7,29.49,SSW,203,12.0,12.0,31,0.00,,,0.00,Wunderground v.1.15,2013-05-16 21:14:00,
2013-05-16 15:20:00,71.3,39.1,29.49,SSW,205,10.0,10.0,31,0.00,,,0.00,Wunderground v.1.15,2013-05-16 21:20:00,
2013-05-16 15:25:00,72.0,38.9,29.48,SW,231,9.0,12.0,30,0.00,,,0.00,Wunderground v.1.15,2013-05-16 21:25:00,
2013-05-16 15:30:00,72.7,37.7,29.49,WSW,249,11.0,11.0,28,0.00,,,0.00,Wunderground v.1.15,2013-05-16 21:30:00,
2013-05-16 15:35:00,72.4,37.4,29.49,SW,215,12.0,12.0,28,0.00,,,0.00,Wunderground v.1.15,2013-05-16 21:35:00,
2013-05-16 15:40:00,72.7,38.6,29.48,South,180,11.0,11.0,29,0.00,,,0.00,Wunderground v.1.15,2013-05-16 21:40:00,
2013-05-16 15:45:00,72.6,36.7,29.48,WSW,243,10.0,11.0,27,0.00,,,0.00,Wunderground v.1.15,2013-05-16 21:45:00,
2013-05-16 15:54:00,75.4,38.1,29.47,WSW,253,8.0,12.0,26,0.00,,,0.00,Wunderground v.1.15,2013-05-16 21:54:00,
2013-05-16 16:00:00,76.0,34.4,29.47,WSW,256,7.0,11.0,22,0.00,,,0.00,Wunderground v.1.15,2013-05-16 22:00:00,
2013-05-16 16:05:00,78.0,33.7,29.46,WSW,238,7.0,14.0,20,0.00,,,0.00,Wunderground v.1.15,2013-05-16 22:05:00,
2013-05-16 16:15:00,80.3,34.3,29.47,SSW,204,5.0,7.0,19,0.00,,,0.00,Wunderground v.1.15,2013-05-16 22:15:00,
2013-05-16 16:20:00,80.6,33.2,29.47,SW,236,4.0,6.0,18,0.00,,,0.00,Wunderground v.1.15,2013-05-16 22:20:00,
2013-05-16 16:25:00,81.1,36.2,29.47,SSW,211,4.0,6.0,20,0.00,,,0.00,Wunderground v.1.15,2013-05-16 22:25:00,
2013-05-16 16:34:00,82.0,32.9,29.47,NE,48,3.0,10.0,17,0.00,,,0.00,Wunderground v.1.15,2013-05-16 22:34:00,
2013-05-16 16:39:00,81.4,33.8,29.47,ESE,122,4.0,4.0,18,0.00,,,0.00,Wunderground v.1.15,2013-05-16 22:39:00,
2013-05-16 16:44:00,80.8,33.3,29.47,WSW,242,4.0,4.0,18,0.00,,,0.00,Wunderground v.1.15,2013-05-16 22:44:00,
2013-05-16 16:50:00,80.6,33.2,29.47,SSE,156,5.0,5.0,18,0.00,,,0.00,Wunderground v.1.15,2013-05-16 22:50:00,
2013-05-16 16:55:00,80.4,33.0,29.47,SE,137,5.0,5.0,18,0.00,,,0.00,Wunderground v.1.15,2013-05-16 22:55:00,
2013-05-16 17:00:00,80.3,34.3,29.47,WNW,298,7.0,8.0,19,0.00,,,0.00,Wunderground v.1.15,2013-05-16 23:00:00,
2013-05-16 17:05:00,79.8,35.1,29.48,WSW,242,8.0,8.0,20,0.00,,,0.00,Wunderground v.1.15,2013-05-16 23:05:00,
2013-05-16 17:14:00,78.6,34.2,29.48,WSW,255,8.0,10.0,20,0.00,,,0.00,Wunderground v.1.15,2013-05-16 23:14:00,
2013-05-16 17:24:00,77.5,35.6,29.47,SSW,204,6.0,7.0,22,0.00,,,0.00,Wunderground v.1.15,2013-05-16 23:24:00,
2013-05-16 17:30:00,76.8,33.9,29.48,SW,215,5.0,7.0,21,0.00,,,0.00,Wunderground v.1.15,2013-05-16 23:30:00,
2013-05-16 17:35:00,76.1,35.6,29.48,WSW,253,4.0,7.0,23,0.00,,,0.00,Wunderground v.1.15,2013-05-16 23:35:00,
2013-05-16 17:40:00,75.7,36.3,29.47,SW,219,3.0,3.0,24,0.00,,,0.00,Wunderground v.1.15,2013-05-16 23:40:00,
2013-05-16 17:45:00,75.3,37.0,29.48,WNW,287,2.0,3.0,25,0.00,,,0.00,Wunderground v.1.15,2013-05-16 23:45:00,
2013-05-16 17:50:00,75.1,34.8,29.48,NNE,18,2.0,2.0,23,0.00,,,0.00,Wunderground v.1.15,2013-05-16 23:50:00,
2013-05-16 17:59:00,74.7,34.4,29.48,ESE,108,1.0,1.0,23,0.00,,,0.00,Wunderground v.1.15,2013-05-16 23:59:00,
2013-05-16 18:05:00,74.6,34.3,29.48,SSW,197,1.0,1.0,23,0.00,,,0.00,Wunderground v.1.15,2013-05-17 00:05:00,
2013-05-16 18:15:00,74.3,36.2,29.49,West,263,2.0,2.0,25,0.00,,,0.00,Wunderground v.1.15,2013-05-17 00:15:00,
2013-05-16 18:20:00,74.1,37.0,29.49,NNE,15,1.0,2.0,26,0.00,,,0.00,Wunderground v.1.15,2013-05-17 00:20:00,
2013-05-16 18:29:00,73.7,36.7,29.49,WSW,256,1.0,1.0,26,0.00,,,0.00,Wunderground v.1.15,2013-05-17 00:29:00,
2013-05-16 18:34:00,73.2,39.0,29.49,West,262,1.0,1.0,29,0.00,,,0.00,Wunderground v.1.15,2013-05-17 00:34:00,
2013-05-16 18:40:00,72.9,36.0,29.49,WSW,243,1.0,2.0,26,0.00,,,0.00,Wunderground v.1.15,2013-05-17 00:40:00,
2013-05-16 18:45:00,72.8,37.8,29.49,West,273,1.0,2.0,28,0.00,,,0.00,Wunderground v.1.15,2013-05-17 00:45:00,
2013-05-16 18:50:00,72.4,39.2,29.49,WNW,297,2.0,2.0,30,0.00,,,0.00,Wunderground v.1.15,2013-05-17 00:50:00,
2013-05-16 18:55:00,72.3,38.2,29.49,WSW,240,3.0,3.0,29,0.00,,,0.00,Wunderground v.1.15,2013-05-17 00:55:00,
2013-05-16 19:00:00,72.5,36.6,29.49,SW,231,5.0,6.0,27,0.00,,,0.00,Wunderground v.1.15,2013-05-17 01:00:00,
2013-05-16 19:05:00,72.5,36.6,29.49,WSW,243,7.0,7.0,27,0.00,,,0.00,Wunderground v.1.15,2013-05-17 01:05:00,
2013-05-16 19:14:00,72.0,37.1,29.50,WSW,242,5.0,7.0,28,0.00,,,0.00,Wunderground v.1.15,2013-05-17 01:14:00,
2013-05-16 19:20:00,71.7,36.8,29.50,SSW,197,4.0,4.0,28,0.00,,,0.00,Wunderground v.1.15,2013-05-17 01:20:00,
2013-05-16 19:25:00,71.2,38.2,29.50,SW,236,3.0,4.0,30,0.00,,,0.00,Wunderground v.1.15,2013-05-17 01:25:00,
2013-05-16 19:30:00,70.8,37.8,29.50,WSW,253,2.0,2.0,30,0.00,,,0.00,Wunderground v.1.15,2013-05-17 01:30:00,
2013-05-16 19:35:00,70.4,38.3,29.51,West,278,1.0,2.0,31,0.00,,,0.00,Wunderground v.1.15,2013-05-17 01:35:00,
2013-05-16 19:45:00,69.6,38.4,29.51,WSW,245,0.0,1.0,32,0.00,,,0.00,Wunderground v.1.15,2013-05-17 01:45:00,
2013-05-16 19:54:00,69.3,38.2,29.52,NE,34,1.0,2.0,32,0.00,,,0.00,Wunderground v.1.15,2013-05-17 01:54:00,
2013-05-16 20:00:00,69.1,38.8,29.52,NNW,348,1.0,2.0,33,0.00,,,0.00,Wunderground v.1.15,2013-05-17 02:00:00,
2013-05-16 20:05:00,69.1,38.0,29.52,NNE,26,1.0,2.0,32,0.00,,,0.00,Wunderground v.1.15,2013-05-17 02:05:00,
2013-05-16 20:15:00,69.2,38.9,29.52,NNE,24,0.0,1.0,33,0.00,,,0.00,Wunderground v.1.15,2013-05-17 02:15:00,
2013-05-16 20:20:00,68.8,38.5,29.52,NNE,25,0.0,0.0,33,0.00,,,0.00,Wunderground v.1.15,2013-05-17 02:20:00,
2013-05-16 20:25:00,68.7,38.4,29.52,NNE,25,0.0,0.0,33,0.00,,,0.00,Wunderground v.1.15,2013-05-17 02:25:00,
2013-05-16 20:34:00,68.2,38.0,29.52,NNE,26,0.0,1.0,33,0.00,,,0.00,Wunderground v.1.15,2013-05-17 02:34:00,
2013-05-16 20:40:00,68.1,40.8,29.52,NNE,26,0.0,0.0,37,0.00,,,0.00,Wunderground v.1.15,2013-05-17 02:40:00,
2013-05-16 20:45:00,67.5,39.6,29.53,NNE,25,0.0,0.0,36,0.00,,,0.00,Wunderground v.1.15,2013-05-17 02:45:00,
2013-05-16 20:55:00,66.7,40.3,29.53,WSW,239,0.0,0.0,38,0.00,,,0.00,Wunderground v.1.15,2013-05-17 02:55:00,
2013-05-16 21:00:00,66.3,41.2,29.53,SSE,163,0.0,0.0,40,0.00,,,0.00,Wunderground v.1.15,2013-05-17 03:00:00,
2013-05-16 21:05:00,65.4,41.7,29.53,SSE,149,0.0,1.0,42,0.00,,,0.00,Wunderground v.1.15,2013-05-17 03:05:00,
2013-05-16 21:14:00,65.2,38.9,29.54,NNW,333,1.0,3.0,38,0.00,,,0.00,Wunderground v.1.15,2013-05-17 03:14:00,
2013-05-16 21:20:00,66.8,38.3,29.54,WNW,294,2.0,3.0,35,0.00,,,0.00,Wunderground v.1.15,2013-05-17 03:20:00,
2013-05-16 21:30:00,67.5,38.1,29.54,NNE,24,2.0,2.0,34,0.00,,,0.00,Wunderground v.1.15,2013-05-17 03:30:00,
2013-05-16 21:35:00,67.8,38.4,29.54,WSW,243,2.0,2.0,34,0.00,,,0.00,Wunderground v.1.15,2013-05-17 03:35:00,
2013-05-16 21:40:00,67.6,38.2,29.54,NW,326,3.0,5.0,34,0.00,,,0.00,Wunderground v.1.15,2013-05-17 03:40:00,
2013-05-16 21:45:00,67.6,38.2,29.54,NNW,342,4.0,5.0,34,0.00,,,0.00,Wunderground v.1.15,2013-05-17 03:45:00,
2013-05-16 21:50:00,67.7,38.3,29.54,WSW,256,3.0,3.0,34,0.00,,,0.00,Wunderground v.1.15,2013-05-17 03:50:00,
2013-05-16 21:59:00,67.2,38.6,29.55,WNW,291,2.0,2.0,35,0.00,,,0.00,Wunderground v.1.15,2013-05-17 03:59:00,
2013-05-16 22:05:00,67.1,38.5,29.55,West,259,2.0,2.0,35,0.00,,,0.00,Wunderground v.1.15,2013-05-17 04:05:00,
2013-05-16 22:10:00,67.1,38.5,29.55,WSW,257,1.0,1.0,35,0.00,,,0.00,Wunderground v.1.15,2013-05-17 04:10:00,
2013-05-16 22:15:00,66.9,38.3,29.55,North,5,1.0,1.0,35,0.00,,,0.00,Wunderground v.1.15,2013-05-17 04:15:00,
2013-05-16 22:25:00,66.9,37.6,29.55,West,278,2.0,2.0,34,0.00,,,0.00,Wunderground v.1.15,2013-05-17 04:25:00,
2013-05-16 22:30:00,67.0,37.7,29.55,WNW,295,2.0,3.0,34,0.00,,,0.00,Wunderground v.1.15,2013-05-17 04:30:00,
2013-05-16 22:35:00,66.8,38.3,29.55,West,278,2.0,3.0,35,0.00,,,0.00,Wunderground v.1.15,2013-05-17 04:35:00,
2013-05-16 22:40:00,66.5,38.7,29.55,West,274,3.0,3.0,36,0.00,,,0.00,Wunderground v.1.15,2013-05-17 04:40:00,
2013-05-16 22:45:00,66.2,38.4,29.55,WNW,288,2.0,3.0,36,0.00,,,0.00,Wunderground v.1.15,2013-05-17 04:45:00,
2013-05-16 22:50:00,66.2,37.7,29.55,WSW,242,2.0,2.0,35,0.00,,,0.00,Wunderground v.1.15,2013-05-17 04:50:00,
2013-05-16 22:55:00,65.6,39.3,29.56,East,84,2.0,2.0,38,0.00,,,0.00,Wunderground v.1.15,2013-05-17 04:55:00,
2013-05-16 23:00:00,65.4,39.1,29.56,NE,56,1.0,1.0,38,0.00,,,0.00,Wunderground v.1.15,2013-05-17 05:00:00,
2013-05-16 23:05:00,65.3,39.7,29.56,NE,46,1.0,5.0,39,0.00,,,0.00,Wunderground v.1.15,2013-05-17 05:05:00,
2013-05-16 23:15:00,66.4,42.0,29.56,East,79,3.0,3.0,41,0.00,,,0.00,Wunderground v.1.15,2013-05-17 05:15:00,
2013-05-16 23:20:00,66.4,42.6,29.56,ENE,73,2.0,2.0,42,0.00,,,0.00,Wunderground v.1.15,2013-05-17 05:20:00,
2013-05-16 23:25:00,66.2,42.4,29.56,ENE,74,1.0,2.0,42,0.00,,,0.00,Wunderground v.1.15,2013-05-17 05:25:00,
2013-05-16 23:30:00,65.8,42.7,29.56,West,260,0.0,1.0,43,0.00,,,0.00,Wunderground v.1.15,2013-05-17 05:30:00,
2013-05-16 23:35:00,65.5,42.4,29.56,West,260,1.0,2.0,43,0.00,,,0.00,Wunderground v.1.15,2013-05-17 05:35:00,
2013-05-16 23:40:00,65.1,41.4,29.56,West,274,1.0,1.0,42,0.00,,,0.00,Wunderground v.1.15,2013-05-17 05:40:00,
2013-05-16 23:50:00,64.6,40.4,29.57,West,271,1.0,1.0,41,0.00,,,0.00,Wunderground v.1.15,2013-05-17 05:50:00,